Retour au catalogue

STARLINK-4362

ActifCommunicationsSSO
NORAD 53043·PAYLOAD·🇺🇸 United States

Lancé Jul 11, 2022 depuis Vandenberg Space Force Base

Loading…

Prochains Passages (prochaines 24 heures)

TLE

FraisSource: CelesTrak SupGP

Époque: Sep 14, 2026, 22:10 UTC

1 53043C 22077A   26257.92409722  .00064791  00000+0  20114-2 0  2573
2 53043  97.2852  72.8067 0001410  99.1976 208.0266 15.33404413    10

Suivez STARLINK-4362 en temps réel avec AllMySat

Download on the App Store